Arcata, CA

8:35 AM PDT on September 28, 2016 (GMT -0700)
Arcata

Weather History for KACV - June, 2013

Change the Weather History Date:

Thursday, June 27, 2013

  Actual Average Record
Temperature  
Mean Temperature 60 °F -  
Max Temperature 66 °F 61 °F 75 °F (2003)
Min Temperature 53 °F 47 °F 43 °F (1999)
Degree Days  
Heating Degree Days 6    
Growing Degree Days 10 (Base 50)    
Moisture  
Dew Point 56 °F    
Average Humidity 94    
Maximum Humidity 100    
Minimum Humidity 75    
Precipitation  
Precipitation 0.00 in - - ()
Sea Level Pressure  
Sea Level Pressure 30.12 in    
Wind  
Wind Speed 3 mph (NNW)    
Max Wind Speed 9 mph    
Max Gust Speed -    
Visibility 3 miles    
Events Fog    
Averages and records for this station are not official NWS values.
T = Trace of Precipitation, MM = Missing Value Source: NWS Daily Summary

Daily Weather History Graph

Daily Weather History Graph

Search for Another Location

Airport or City:

Trip Planner

Search our weather history database for the weather conditions in past years. The results will help you decide how hot, cold, wet, or windy it might be!

Date:

Astronomy

Jun. 27, 2013 Rise Set
Actual Time 5:46 AM PDT 8:52 PM PDT
Civil Twilight 5:12 AM PDT 9:26 PM PDT
Nautical Twilight 4:30 AM PDT 10:08 PM PDT
Astronomical Twilight 3:39 AM PDT 10:59 PM PDT
Moon 11:50 PM PDT (6/27) 10:56 AM PDT (6/27)
Length of Visible Light 16h 13m
Length of Day
15h 06m
Waning Gibbous, 75% of the Moon is Illuminated
Jun 27
Waning Gibbous
Jun 29
Last Quarter
Jul 8
New
Jul 15
First Quarter
Jul 22
Full

Hourly Weather History & Observations

Time (PDT) Temp. Dew Point Humidity Pressure Visibility Wind Dir Wind Speed Gust Speed Precip Events Conditions
12:53 AM 60.1 °F 57.9 °F 93% 30.07 in 6.0 mi Calm Calm - N/A   Overcast
1:19 AM 57.2 °F 55.4 °F 94% 30.06 in 1.8 mi WSW 5.8 mph - N/A   Overcast
1:27 AM 57.2 °F 55.4 °F 94% 30.06 in 1.2 mi WSW 4.6 mph - N/A   Overcast
1:35 AM 55.4 °F 55.4 °F 100% 30.07 in 1.2 mi Calm Calm - N/A   Overcast
1:44 AM 55.4 °F 55.4 °F 100% 30.07 in 0.8 mi Calm Calm - N/A   Mist
1:53 AM 57.0 °F 55.9 °F 96% 30.08 in 0.5 mi Calm Calm - N/A Fog Fog
2:03 AM 57.2 °F 55.4 °F 94% 30.06 in 0.2 mi Calm Calm - N/A Fog Fog
2:13 AM 57.2 °F 55.4 °F 94% 30.07 in 0.2 mi Calm Calm - N/A Fog Fog
2:53 AM 57.0 °F 57.0 °F 100% 30.09 in 0.2 mi East 3.5 mph - N/A Fog Fog
3:15 AM 57.2 °F 55.4 °F 94% 30.07 in 0.5 mi East 3.5 mph - N/A Fog Fog
3:20 AM 57.2 °F 55.4 °F 94% 30.07 in 0.2 mi Calm Calm - N/A Fog Fog
3:27 AM 57.2 °F 55.4 °F 94% 30.07 in 0.2 mi Calm Calm - N/A Fog Fog
3:50 AM 55.4 °F 55.4 °F 100% 30.06 in 1.0 mi East 5.8 mph - N/A   Mist
3:53 AM 55.9 °F 55.9 °F 100% 30.08 in 2.0 mi East 5.8 mph - N/A   Mostly Cloudy
4:01 AM 57.2 °F 55.4 °F 94% 30.06 in 8.0 mi East 4.6 mph - N/A   Scattered Clouds
4:30 AM 53.6 °F 53.6 °F 100% 30.06 in 1.5 mi NNW 4.6 mph - N/A   Partly Cloudy
4:32 AM 53.6 °F 53.6 °F 100% 30.06 in 0.8 mi NNW 3.5 mph - N/A   Mist
4:40 AM 53.6 °F 53.6 °F 100% 30.06 in 0.2 mi Calm Calm - N/A Fog Fog
4:49 AM 55.4 °F 55.4 °F 100% 30.05 in 1.0 mi East 4.6 mph - N/A   Mist
4:51 AM 55.4 °F 55.4 °F 100% 30.05 in 2.5 mi East 4.6 mph - N/A   Scattered Clouds
4:53 AM 55.9 °F 55.0 °F 97% 30.06 in 6.0 mi East 3.5 mph - N/A   Scattered Clouds
5:19 AM 53.6 °F 53.6 °F 100% 30.06 in 1.0 mi WNW 3.5 mph - N/A   Mist
5:23 AM 53.6 °F 53.6 °F 100% 30.06 in 0.2 mi WNW 4.6 mph - N/A Fog Fog
5:36 AM 53.6 °F 53.6 °F 100% 30.07 in 0.2 mi NW 4.6 mph - N/A Fog Fog
5:48 AM 55.4 °F 55.4 °F 100% 30.07 in 0.2 mi Calm Calm - N/A Fog Fog
5:53 AM 55.0 °F 55.0 °F 100% 30.09 in 0.2 mi Calm Calm - N/A Fog Fog
6:05 AM 55.4 °F 55.4 °F 100% 30.08 in 0.2 mi NNW 3.5 mph - N/A Fog Fog
6:15 AM 53.6 °F 53.6 °F 100% 30.09 in 0.2 mi NNW 3.5 mph - N/A Fog Fog
6:53 AM 55.0 °F 54.0 °F 96% 30.12 in 0.2 mi NW 5.8 mph - N/A Fog Fog
7:30 AM 55.4 °F 55.4 °F 100% 30.11 in 0.2 mi Calm Calm - N/A Fog Fog
7:49 AM 55.4 °F 55.4 °F 100% 30.11 in 0.2 mi Calm Calm - N/A Fog Fog
7:53 AM 55.9 °F 55.0 °F 97% 30.13 in 0.2 mi Calm Calm - N/A Fog Fog
8:53 AM 57.0 °F 57.0 °F 100% 30.14 in 0.2 mi Calm Calm - N/A Fog Fog
9:20 AM 57.2 °F 57.2 °F 100% 30.13 in 0.8 mi Calm Calm - N/A   Mist
9:25 AM 59.0 °F 57.2 °F 94% 30.13 in 2.0 mi Calm Calm - N/A   Overcast
9:33 AM 60.8 °F 59.0 °F 94% 30.13 in 8.0 mi Calm Calm - N/A   Overcast
9:53 AM 63.0 °F 60.1 °F 90% 30.14 in 10.0 mi Calm Calm - N/A   Scattered Clouds
10:53 AM 62.1 °F 57.0 °F 84% 30.15 in 10.0 mi NNW 6.9 mph - N/A   Clear
11:53 AM 66.0 °F 57.9 °F 75% 30.17 in 10.0 mi NNW 6.9 mph - N/A   Clear
12:53 PM 66.0 °F 57.9 °F 75% 30.17 in 10.0 mi WNW 5.8 mph - N/A   Clear
1:53 PM 66.0 °F 59.0 °F 78% 30.17 in 10.0 mi NW 9.2 mph - N/A   Clear
2:53 PM 64.9 °F 60.1 °F 84% 30.17 in 10.0 mi NW 9.2 mph - N/A   Clear
3:07 PM 64.4 °F 60.8 °F 88% 30.16 in 10.0 mi NW 8.1 mph - N/A   Partly Cloudy
3:25 PM 64.4 °F 59.0 °F 83% 30.16 in 10.0 mi NW 9.2 mph - N/A   Mostly Cloudy
3:53 PM 64.9 °F 60.1 °F 84% 30.18 in 10.0 mi NW 6.9 mph - N/A   Mostly Cloudy
4:49 PM 62.6 °F 59.0 °F 88% 30.17 in 2.5 mi NNW 4.6 mph - N/A   Overcast
4:53 PM 63.0 °F 59.0 °F 87% 30.19 in 4.0 mi NW 4.6 mph - N/A   Overcast
4:59 PM 62.6 °F 59.0 °F 88% 30.17 in 2.5 mi NW 4.6 mph - N/A   Overcast
5:07 PM 60.8 °F 59.0 °F 94% 30.17 in 0.8 mi NW 5.8 mph - N/A   Overcast
5:23 PM 60.8 °F 57.2 °F 88% 30.17 in 1.5 mi NW 5.8 mph - N/A   Overcast
5:39 PM 60.8 °F 59.0 °F 94% 30.16 in 0.8 mi NNW 4.6 mph - N/A   Overcast
5:43 PM 62.6 °F 59.0 °F 88% 30.16 in 2.5 mi Calm Calm - N/A   Overcast
5:50 PM 62.6 °F 59.0 °F 88% 30.16 in 7.0 mi NNW 4.6 mph - N/A   Overcast
5:53 PM 63.0 °F 59.0 °F 87% 30.18 in 10.0 mi NW 4.6 mph - N/A   Overcast
6:20 PM 60.8 °F 57.2 °F 88% 30.16 in 1.2 mi NNW 5.8 mph - N/A   Mostly Cloudy
6:29 PM 60.8 °F 57.2 °F 88% 30.16 in 0.8 mi NW 5.8 mph - N/A   Overcast
6:33 PM 60.8 °F 57.2 °F 88% 30.16 in 2.0 mi NNW 4.6 mph - N/A   Overcast
6:42 PM 60.8 °F 57.2 °F 88% 30.16 in 0.8 mi NW 6.9 mph - N/A   Overcast
6:53 PM 59.0 °F 57.9 °F 96% 30.17 in 0.2 mi NNW 6.9 mph - N/A Fog Fog
7:13 PM 57.2 °F 57.2 °F 100% 30.15 in 0.2 mi Variable 3.5 mph - N/A Fog Fog
7:36 PM 57.2 °F 57.2 °F 100% 30.15 in 0.2 mi NNW 4.6 mph - N/A Fog Fog
7:53 PM 57.9 °F 57.0 °F 97% 30.16 in 0.2 mi NW 4.6 mph - N/A Fog Fog
8:04 PM 57.2 °F 57.2 °F 100% 30.14 in 0.2 mi Calm Calm - N/A Fog Fog
8:27 PM 57.2 °F 57.2 °F 100% 30.14 in 0.2 mi Calm Calm - N/A Fog Fog
8:53 PM 57.0 °F 57.0 °F 100% 30.15 in 0.2 mi SSE 4.6 mph - N/A Fog Fog
9:01 PM 57.2 °F 55.4 °F 94% 30.13 in 0.2 mi SSE 3.5 mph - N/A Fog Fog
9:18 PM 57.2 °F 55.4 °F 94% 30.13 in 0.8 mi Calm Calm - N/A   Mist
9:21 PM 55.4 °F 55.4 °F 100% 30.13 in 1.0 mi South 3.5 mph - N/A   Mist
9:43 PM 55.4 °F 55.4 °F 100% 30.14 in 3.0 mi South 3.5 mph - N/A   Scattered Clouds
9:53 PM 55.9 °F 55.9 °F 100% 30.15 in 10.0 mi SSE 3.5 mph - N/A   Partly Cloudy
10:53 PM 55.9 °F 55.0 °F 97% 30.15 in 10.0 mi Calm Calm - N/A   Clear
11:49 PM 55.4 °F 53.6 °F 94% 30.14 in 1.5 mi Calm Calm - N/A   Partly Cloudy
11:51 PM 55.4 °F 53.6 °F 94% 30.14 in 0.8 mi Calm Calm - N/A   Mist
11:53 PM 55.0 °F 55.0 °F 100% 30.16 in 0.5 mi Calm Calm - N/A Fog Fog